Time,TemperatureF,DewpointF,PressureIn,WindDirection,WindDirectionDegrees,WindSpeedMPH,WindSpeedGustMPH,Humidity,HourlyPrecipIn,Conditions,Clouds,dailyrainin,SoftwareType,DateUTC
2013-05-09 00:05:00,62.1,57.2,29.86,East,94,0.0,0.0,84,0.00,,,0.02,Wunderground v.1.15,2013-05-09 05:05:00,
2013-05-09 00:10:00,62.1,57.2,29.85,East,92,0.0,0.0,84,0.00,,,0.02,Wunderground v.1.15,2013-05-09 05:10:00,
2013-05-09 00:15:00,61.9,57.0,29.85,East,92,0.0,1.0,84,0.00,,,0.02,Wunderground v.1.15,2013-05-09 05:15:00,
2013-05-09 00:20:00,61.8,56.9,29.85,ESE,107,0.0,1.0,84,0.00,,,0.02,Wunderground v.1.15,2013-05-09 05:20:00,
2013-05-09 00:25:00,61.6,57.0,29.86,SE,126,0.0,1.0,85,0.00,,,0.02,Wunderground v.1.15,2013-05-09 05:25:00,
2013-05-09 00:35:00,60.8,56.9,29.85,East,89,0.0,0.0,87,0.00,,,0.00,Wunderground v.1.15,2013-05-09 05:35:00,
2013-05-09 00:40:00,60.4,56.5,29.86,SSE,155,0.0,0.0,87,0.00,,,0.01,Wunderground v.1.15,2013-05-09 05:40:00,
2013-05-09 00:45:00,60.0,56.7,29.86,SW,225,0.0,1.0,89,0.29,,,0.03,Wunderground v.1.15,2013-05-09 05:45:00,
2013-05-09 00:50:00,59.6,56.7,29.86,SSW,208,0.0,0.0,90,0.25,,,0.05,Wunderground v.1.15,2013-05-09 05:50:00,
2013-05-09 00:55:00,59.2,56.6,29.86,SE,138,0.0,0.0,91,0.08,,,0.05,Wunderground v.1.15,2013-05-09 05:55:00,
2013-05-09 01:00:00,58.9,56.3,29.86,SE,138,0.0,0.0,91,0.05,,,0.05,Wunderground v.1.15,2013-05-09 06:00:00,
2013-05-09 01:10:00,58.5,56.5,29.86,ESE,105,0.0,1.0,93,0.46,,,0.24,Wunderground v.1.15,2013-05-09 06:10:00,
2013-05-09 01:15:00,58.3,56.3,29.86,ESE,110,0.0,1.0,93,0.16,,,0.25,Wunderground v.1.15,2013-05-09 06:15:00,
2013-05-09 01:20:00,58.2,56.5,29.86,ESE,108,0.0,0.0,94,0.39,,,0.33,Wunderground v.1.15,2013-05-09 06:20:00,
2013-05-09 01:25:00,58.2,56.5,29.86,ESE,108,0.0,0.0,94,0.20,,,0.36,Wunderground v.1.15,2013-05-09 06:25:00,
2013-05-09 01:30:00,58.2,56.5,29.86,ESE,108,0.0,0.0,94,0.12,,,0.37,Wunderground v.1.15,2013-05-09 06:30:00,
2013-05-09 01:35:00,58.1,56.4,29.86,ESE,108,0.0,0.0,94,0.43,,,0.40,Wunderground v.1.15,2013-05-09 06:35:00,
2013-05-09 01:40:00,58.0,56.6,29.86,ESE,108,0.0,0.0,95,0.44,,,0.43,Wunderground v.1.15,2013-05-09 06:40:00,
2013-05-09 01:45:00,58.1,56.7,29.85,ESE,109,0.0,0.0,95,0.73,,,0.50,Wunderground v.1.15,2013-05-09 06:45:00,
2013-05-09 01:50:00,58.1,56.7,29.85,ESE,109,0.0,0.0,95,0.18,,,0.53,Wunderground v.1.15,2013-05-09 06:50:00,
2013-05-09 01:55:00,58.2,56.8,29.86,ESE,108,0.0,0.0,95,0.10,,,0.53,Wunderground v.1.15,2013-05-09 06:55:00,
2013-05-09 02:00:00,58.3,56.9,29.85,ESE,108,0.0,0.0,95,0.06,,,0.53,Wunderground v.1.15,2013-05-09 07:00:00,
2013-05-09 02:10:00,58.4,57.3,29.84,ESE,107,0.0,0.0,96,0.28,,,0.56,Wunderground v.1.15,2013-05-09 07:10:00,
2013-05-09 02:15:00,58.4,57.3,29.85,ESE,115,0.0,0.0,96,0.20,,,0.57,Wunderground v.1.15,2013-05-09 07:15:00,
2013-05-09 02:20:00,58.4,57.3,29.85,ESE,116,0.0,0.0,96,0.09,,,0.58,Wunderground v.1.15,2013-05-09 07:20:00,
2013-05-09 02:25:00,58.5,57.4,29.85,ESE,115,0.0,0.0,96,0.09,,,0.58,Wunderground v.1.15,2013-05-09 07:25:00,
2013-05-09 02:30:00,58.4,57.3,29.84,ESE,117,0.0,0.0,96,0.25,,,0.60,Wunderground v.1.15,2013-05-09 07:30:00,
2013-05-09 02:35:00,58.4,57.3,29.85,ESE,117,0.0,0.0,96,0.14,,,0.61,Wunderground v.1.15,2013-05-09 07:35:00,
2013-05-09 02:45:00,58.2,57.1,29.84,ESE,115,0.0,0.0,96,0.04,,,0.61,Wunderground v.1.15,2013-05-09 07:45:00,
2013-05-09 02:50:00,58.1,57.0,29.84,ESE,117,0.0,0.0,96,0.00,,,0.61,Wunderground v.1.15,2013-05-09 07:50:00,
2013-05-09 02:55:00,58.0,56.9,29.84,ESE,117,0.0,0.0,96,0.00,,,0.61,Wunderground v.1.15,2013-05-09 07:55:00,
2013-05-09 03:00:00,58.0,56.9,29.84,ESE,117,0.0,0.0,96,0.00,,,0.61,Wunderground v.1.15,2013-05-09 08:00:00,
2013-05-09 03:05:00,58.1,57.0,29.84,ESE,117,0.0,0.0,96,0.00,,,0.61,Wunderground v.1.15,2013-05-09 08:05:00,
2013-05-09 03:15:00,58.1,57.0,29.83,ESE,117,0.0,0.0,96,0.00,,,0.61,Wunderground v.1.15,2013-05-09 08:15:00,
2013-05-09 03:20:00,58.2,57.1,29.84,SE,125,0.0,0.0,96,0.00,,,0.61,Wunderground v.1.15,2013-05-09 08:20:00,
2013-05-09 03:25:00,58.2,57.1,29.84,ESE,111,0.0,0.0,96,0.00,,,0.61,Wunderground v.1.15,2013-05-09 08:25:00,
2013-05-09 03:30:00,58.3,57.2,29.84,ESE,121,0.0,1.0,96,0.00,,,0.61,Wunderground v.1.15,2013-05-09 08:30:00,
2013-05-09 03:35:00,58.4,57.3,29.85,SE,129,0.0,1.0,96,0.00,,,0.61,Wunderground v.1.15,2013-05-09 08:35:00,
2013-05-09 03:40:00,58.4,57.3,29.85,East,94,0.0,0.0,96,0.00,,,0.61,Wunderground v.1.15,2013-05-09 08:40:00,
2013-05-09 03:50:00,58.3,57.2,29.85,SE,138,0.0,0.0,96,0.00,,,0.61,Wunderground v.1.15,2013-05-09 08:50:00,
2013-05-09 03:55:00,58.4,57.3,29.85,NNE,15,0.0,0.0,96,0.00,,,0.62,Wunderground v.1.15,2013-05-09 08:55:00,
2013-05-09 04:00:00,58.4,57.3,29.85,East,98,0.0,0.0,96,0.00,,,0.62,Wunderground v.1.15,2013-05-09 09:00:00,
2013-05-09 04:05:00,58.5,57.4,29.85,East,82,0.0,3.0,96,0.00,,,0.62,Wunderground v.1.15,2013-05-09 09:05:00,
2013-05-09 04:10:00,58.4,57.3,29.83,ESE,108,1.0,1.0,96,0.00,,,0.62,Wunderground v.1.15,2013-05-09 09:10:00,
2013-05-09 04:20:00,58.2,57.1,29.84,East,101,0.0,0.0,96,0.00,,,0.63,Wunderground v.1.15,2013-05-09 09:20:00,
2013-05-09 04:25:00,58.1,57.0,29.84,East,100,0.0,0.0,96,0.07,,,0.64,Wunderground v.1.15,2013-05-09 09:25:00,
2013-05-09 04:30:00,58.1,57.0,29.84,ESE,110,0.0,0.0,96,0.11,,,0.65,Wunderground v.1.15,2013-05-09 09:30:00,
2013-05-09 04:35:00,58.0,56.9,29.83,East,99,0.0,0.0,96,0.09,,,0.65,Wunderground v.1.15,2013-05-09 09:35:00,
2013-05-09 04:40:00,58.0,56.9,29.83,East,98,0.0,0.0,96,0.05,,,0.65,Wunderground v.1.15,2013-05-09 09:40:00,
2013-05-09 04:45:00,57.9,56.8,29.83,East,79,0.0,0.0,96,0.04,,,0.65,Wunderground v.1.15,2013-05-09 09:45:00,
2013-05-09 04:50:00,57.7,56.6,29.83,ESE,107,0.0,0.0,96,0.00,,,0.66,Wunderground v.1.15,2013-05-09 09:50:00,
2013-05-09 04:55:00,57.6,56.5,29.83,SE,141,0.0,0.0,96,0.00,,,0.66,Wunderground v.1.15,2013-05-09 09:55:00,
2013-05-09 05:00:00,57.5,56.4,29.83,SE,142,0.0,0.0,96,0.00,,,0.66,Wunderground v.1.15,2013-05-09 10:00:00,
2013-05-09 05:05:00,57.5,56.4,29.83,SE,142,0.0,0.0,96,0.00,,,0.66,Wunderground v.1.15,2013-05-09 10:05:00,
2013-05-09 05:10:00,57.5,56.4,29.83,SE,139,0.0,0.0,96,0.00,,,0.66,Wunderground v.1.15,2013-05-09 10:10:00,
2013-05-09 05:20:00,57.4,56.3,29.84,SE,140,0.0,0.0,96,0.00,,,0.66,Wunderground v.1.15,2013-05-09 10:20:00,
2013-05-09 05:25:00,57.3,56.2,29.84,NW,307,0.0,0.0,96,0.00,,,0.66,Wunderground v.1.15,2013-05-09 10:25:00,
2013-05-09 05:30:00,57.3,56.2,29.84,NW,318,0.0,0.0,96,0.00,,,0.66,Wunderground v.1.15,2013-05-09 10:30:00,
2013-05-09 05:35:00,57.2,56.1,29.83,NW,318,0.0,0.0,96,0.00,,,0.66,Wunderground v.1.15,2013-05-09 10:35:00,
2013-05-09 05:40:00,57.2,56.1,29.83,NW,319,0.0,0.0,96,0.00,,,0.66,Wunderground v.1.15,2013-05-09 10:40:00,
2013-05-09 05:45:00,57.1,56.0,29.84,NW,319,0.0,0.0,96,0.00,,,0.66,Wunderground v.1.15,2013-05-09 10:45:00,
2013-05-09 05:55:00,57.0,55.9,29.84,WNW,283,0.0,0.0,96,0.00,,,0.66,Wunderground v.1.15,2013-05-09 10:55:00,
2013-05-09 06:00:00,56.9,55.8,29.84,WNW,287,0.0,0.0,96,0.00,,,0.66,Wunderground v.1.15,2013-05-09 11:00:00,
2013-05-09 06:05:00,56.8,55.7,29.84,WNW,287,0.0,0.0,96,0.00,,,0.66,Wunderground v.1.15,2013-05-09 11:05:00,
2013-05-09 06:10:00,56.8,55.7,29.84,NNE,25,0.0,0.0,96,0.00,,,0.66,Wunderground v.1.15,2013-05-09 11:10:00,
2013-05-09 06:15:00,56.8,55.7,29.84,NNE,24,0.0,0.0,96,0.00,,,0.66,Wunderground v.1.15,2013-05-09 11:15:00,
2013-05-09 06:20:00,56.8,55.7,29.85,West,267,0.0,0.0,96,0.00,,,0.66,Wunderground v.1.15,2013-05-09 11:20:00,
2013-05-09 06:30:00,56.7,55.6,29.85,East,91,0.0,0.0,96,0.00,,,0.66,Wunderground v.1.15,2013-05-09 11:30:00,
2013-05-09 06:35:00,56.7,55.6,29.85,East,94,0.0,1.0,96,0.00,,,0.66,Wunderground v.1.15,2013-05-09 11:35:00,
2013-05-09 06:40:00,56.6,55.8,29.84,ESE,111,0.0,1.0,97,0.00,,,0.66,Wunderground v.1.15,2013-05-09 11:40:00,
2013-05-09 06:45:00,56.6,55.5,29.84,ESE,120,0.0,1.0,96,0.00,,,0.66,Wunderground v.1.15,2013-05-09 11:45:00,
2013-05-09 06:50:00,56.6,55.8,29.84,ESE,107,0.0,0.0,97,0.00,,,0.66,Wunderground v.1.15,2013-05-09 11:50:00,
2013-05-09 07:00:00,56.5,55.7,29.84,ESE,110,0.0,0.0,97,0.00,,,0.66,Wunderground v.1.15,2013-05-09 12:00:00,
2013-05-09 07:05:00,56.4,55.6,29.84,ESE,104,1.0,1.0,97,0.00,,,0.66,Wunderground v.1.15,2013-05-09 12:05:00,
2013-05-09 07:10:00,56.3,55.5,29.84,South,190,1.0,1.0,97,0.00,,,0.66,Wunderground v.1.15,2013-05-09 12:10:00,
2013-05-09 07:15:00,56.2,55.1,29.85,West,267,1.0,1.0,96,0.00,,,0.66,Wunderground v.1.15,2013-05-09 12:15:00,
2013-05-09 07:20:00,56.1,55.3,29.85,ENE,71,1.0,1.0,97,0.00,,,0.66,Wunderground v.1.15,2013-05-09 12:20:00,
2013-05-09 07:25:00,56.0,55.2,29.86,East,89,0.0,1.0,97,0.00,,,0.66,Wunderground v.1.15,2013-05-09 12:25:00,
2013-05-09 07:35:00,56.0,55.2,29.86,WNW,297,0.0,1.0,97,0.00,,,0.66,Wunderground v.1.15,2013-05-09 12:35:00,
2013-05-09 07:40:00,55.8,55.0,29.85,ENE,76,1.0,1.0,97,0.00,,,0.66,Wunderground v.1.15,2013-05-09 12:40:00,
2013-05-09 07:45:00,55.8,55.0,29.85,SE,124,1.0,1.0,97,0.00,,,0.66,Wunderground v.1.15,2013-05-09 12:45:00,
2013-05-09 07:50:00,55.8,55.0,29.86,SE,129,1.0,1.0,97,0.00,,,0.66,Wunderground v.1.15,2013-05-09 12:50:00,
2013-05-09 07:55:00,55.8,55.0,29.86,SE,143,1.0,1.0,97,0.00,,,0.66,Wunderground v.1.15,2013-05-09 12:55:00,
2013-05-09 08:05:00,56.1,55.3,29.86,East,96,0.0,1.0,97,0.00,,,0.66,Wunderground v.1.15,2013-05-09 13:05:00,
2013-05-09 08:10:00,56.3,55.5,29.86,West,274,1.0,1.0,97,0.00,,,0.66,Wunderground v.1.15,2013-05-09 13:10:00,
2013-05-09 08:15:00,56.5,55.7,29.86,SE,126,0.0,1.0,97,0.00,,,0.66,Wunderground v.1.15,2013-05-09 13:15:00,
2013-05-09 08:20:00,56.6,55.8,29.87,West,270,0.0,1.0,97,0.00,,,0.66,Wunderground v.1.15,2013-05-09 13:20:00,
2013-05-09 08:25:00,56.7,55.9,29.87,East,95,0.0,1.0,97,0.00,,,0.66,Wunderground v.1.15,2013-05-09 13:25:00,
2013-05-09 08:30:00,56.9,56.1,29.87,East,79,0.0,0.0,97,0.00,,,0.66,Wunderground v.1.15,2013-05-09 13:30:00,
2013-05-09 08:40:00,57.0,55.9,29.88,ESE,109,1.0,1.0,96,0.00,,,0.66,Wunderground v.1.15,2013-05-09 13:40:00,
2013-05-09 08:45:00,57.0,55.9,29.88,ENE,75,1.0,2.0,96,0.00,,,0.66,Wunderground v.1.15,2013-05-09 13:45:00,
2013-05-09 08:50:00,57.2,56.1,29.88,ESE,121,1.0,1.0,96,0.00,,,0.66,Wunderground v.1.15,2013-05-09 13:50:00,
2013-05-09 08:55:00,57.4,56.0,29.88,East,91,1.0,2.0,95,0.00,,,0.66,Wunderground v.1.15,2013-05-09 13:55:00,
2013-05-09 09:00:00,57.4,56.0,29.88,East,86,1.0,1.0,95,0.00,,,0.66,Wunderground v.1.15,2013-05-09 14:00:00,
2013-05-09 09:05:00,57.5,56.1,29.88,SE,126,0.0,1.0,95,0.00,,,0.66,Wunderground v.1.15,2013-05-09 14:05:00,
2013-05-09 09:10:00,57.5,56.1,29.89,SE,128,0.0,0.0,95,0.00,,,0.66,Wunderground v.1.15,2013-05-09 14:10:00,
2013-05-09 09:15:00,57.5,55.8,29.89,ENE,77,0.0,1.0,94,0.00,,,0.66,Wunderground v.1.15,2013-05-09 14:15:00,
2013-05-09 09:20:00,57.5,55.8,29.89,East,89,1.0,1.0,94,0.00,,,0.66,Wunderground v.1.15,2013-05-09 14:20:00,
2013-05-09 09:25:00,57.7,56.3,29.89,WNW,284,0.0,1.0,95,0.00,,,0.66,Wunderground v.1.15,2013-05-09 14:25:00,
2013-05-09 09:30:00,57.8,56.1,29.89,East,95,0.0,0.0,94,0.00,,,0.66,Wunderground v.1.15,2013-05-09 14:30:00,
2013-05-09 09:40:00,57.9,56.2,29.89,ESE,108,0.0,3.0,94,0.00,,,0.66,Wunderground v.1.15,2013-05-09 14:40:00,
2013-05-09 09:45:00,58.0,56.3,29.89,WNW,290,0.0,3.0,94,0.00,,,0.66,Wunderground v.1.15,2013-05-09 14:45:00,
2013-05-09 09:50:00,57.9,56.2,29.89,East,96,0.0,3.0,94,0.00,,,0.66,Wunderground v.1.15,2013-05-09 14:50:00,
2013-05-09 09:55:00,57.8,56.4,29.89,East,101,0.0,3.0,95,0.00,,,0.66,Wunderground v.1.15,2013-05-09 14:55:00,
2013-05-09 10:00:00,57.9,56.5,29.89,East,99,0.0,3.0,95,0.00,,,0.66,Wunderground v.1.15,2013-05-09 15:00:00,
2013-05-09 10:05:00,58.0,56.6,29.89,East,101,0.0,3.0,95,0.00,,,0.66,Wunderground v.1.15,2013-05-09 15:05:00,
2013-05-09 10:15:00,58.1,56.4,29.90,East,92,0.0,3.0,94,0.00,,,0.66,Wunderground v.1.15,2013-05-09 15:15:00,
2013-05-09 10:20:00,58.3,56.9,29.90,WNW,295,0.0,3.0,95,0.00,,,0.66,Wunderground v.1.15,2013-05-09 15:20:00,
2013-05-09 10:25:00,58.5,56.8,29.90,WSW,241,0.0,3.0,94,0.00,,,0.66,Wunderground v.1.15,2013-05-09 15:25:00,
2013-05-09 10:30:00,58.7,57.0,29.90,East,79,0.0,3.0,94,0.00,,,0.66,Wunderground v.1.15,2013-05-09 15:30:00,
2013-05-09 10:35:00,58.8,57.1,29.91,East,82,0.0,3.0,94,0.00,,,0.66,Wunderground v.1.15,2013-05-09 15:35:00,
2013-05-09 10:45:00,59.0,56.7,29.91,NNE,18,0.0,3.0,92,0.00,,,0.66,Wunderground v.1.15,2013-05-09 15:45:00,
2013-05-09 10:50:00,59.0,56.7,29.91,WNW,299,0.0,3.0,92,0.00,,,0.66,Wunderground v.1.15,2013-05-09 15:50:00,
2013-05-09 10:55:00,59.1,56.8,29.91,ESE,107,0.0,3.0,92,0.00,,,0.66,Wunderground v.1.15,2013-05-09 15:55:00,
2013-05-09 11:00:00,58.8,56.5,29.91,ESE,120,0.0,3.0,92,0.00,,,0.66,Wunderground v.1.15,2013-05-09 16:00:00,
2013-05-09 11:05:00,58.6,56.6,29.91,East,101,0.0,3.0,93,0.00,,,0.66,Wunderground v.1.15,2013-05-09 16:05:00,
2013-05-09 11:10:00,58.4,56.4,29.91,NE,56,0.0,3.0,93,0.00,,,0.66,Wunderground v.1.15,2013-05-09 16:10:00,
2013-05-09 11:20:00,58.1,56.1,29.91,WSW,248,1.0,1.0,93,0.00,,,0.66,Wunderground v.1.15,2013-05-09 16:20:00,
2013-05-09 11:25:00,58.1,56.4,29.91,ESE,115,1.0,3.0,94,0.00,,,0.66,Wunderground v.1.15,2013-05-09 16:25:00,
2013-05-09 11:30:00,58.0,56.3,29.92,East,82,1.0,3.0,94,0.00,,,0.66,Wunderground v.1.15,2013-05-09 16:30:00,
2013-05-09 11:35:00,58.0,56.3,29.92,SE,135,1.0,3.0,94,0.00,,,0.66,Wunderground v.1.15,2013-05-09 16:35:00,
2013-05-09 11:40:00,58.1,56.4,29.92,East,89,1.0,1.0,94,0.00,,,0.66,Wunderground v.1.15,2013-05-09 16:40:00,
2013-05-09 11:45:00,58.3,56.9,29.92,East,82,0.0,3.0,95,0.00,,,0.66,Wunderground v.1.15,2013-05-09 16:45:00,
2013-05-09 11:55:00,58.4,56.7,29.92,SW,224,0.0,3.0,94,0.00,,,0.66,Wunderground v.1.15,2013-05-09 16:55:00,
2013-05-09 12:00:00,58.3,56.6,29.92,SSE,158,0.0,3.0,94,0.00,,,0.66,Wunderground v.1.15,2013-05-09 17:00:00,
2013-05-09 12:05:00,58.4,56.7,29.92,ESE,110,0.0,3.0,94,0.00,,,0.66,Wunderground v.1.15,2013-05-09 17:05:00,
2013-05-09 12:10:00,58.4,56.7,29.92,ESE,118,0.0,3.0,94,0.00,,,0.66,Wunderground v.1.15,2013-05-09 17:10:00,
2013-05-09 12:15:00,58.5,57.1,29.92,ENE,76,0.0,3.0,95,0.00,,,0.66,Wunderground v.1.15,2013-05-09 17:15:00,
2013-05-09 12:25:00,58.5,56.8,29.92,WSW,255,0.0,3.0,94,0.00,,,0.66,Wunderground v.1.15,2013-05-09 17:25:00,
2013-05-09 12:30:00,58.6,56.9,29.92,WSW,255,0.0,3.0,94,0.00,,,0.66,Wunderground v.1.15,2013-05-09 17:30:00,
2013-05-09 12:35:00,58.7,57.0,29.92,WSW,255,0.0,3.0,94,0.00,,,0.66,Wunderground v.1.15,2013-05-09 17:35:00,
2013-05-09 12:40:00,58.8,57.1,29.92,WSW,256,0.0,3.0,94,0.00,,,0.67,Wunderground v.1.15,2013-05-09 17:40:00,
2013-05-09 12:45:00,59.0,57.3,29.92,WSW,255,0.0,3.0,94,0.00,,,0.67,Wunderground v.1.15,2013-05-09 17:45:00,
2013-05-09 12:55:00,58.9,56.9,29.92,WSW,255,0.0,3.0,93,0.00,,,0.67,Wunderground v.1.15,2013-05-09 17:55:00,
2013-05-09 13:00:00,59.0,57.3,29.92,WSW,255,0.0,3.0,94,0.00,,,0.67,Wunderground v.1.15,2013-05-09 18:00:00,
2013-05-09 13:05:00,59.0,57.0,29.92,WSW,256,0.0,3.0,93,0.00,,,0.67,Wunderground v.1.15,2013-05-09 18:05:00,
2013-05-09 13:10:00,59.0,57.0,29.92,WSW,256,0.0,3.0,93,0.00,,,0.67,Wunderground v.1.15,2013-05-09 18:10:00,
2013-05-09 13:15:00,59.2,57.2,29.92,WSW,256,0.0,3.0,93,0.00,,,0.67,Wunderground v.1.15,2013-05-09 18:15:00,
2013-05-09 13:20:00,59.4,57.4,29.92,WSW,255,0.0,3.0,93,0.00,,,0.67,Wunderground v.1.15,2013-05-09 18:20:00,
2013-05-09 13:30:00,59.5,57.2,29.92,ESE,116,0.0,3.0,92,0.00,,,0.67,Wunderground v.1.15,2013-05-09 18:30:00,
2013-05-09 13:35:00,59.6,57.0,29.91,WSW,243,1.0,3.0,91,0.00,,,0.67,Wunderground v.1.15,2013-05-09 18:35:00,
2013-05-09 13:40:00,60.0,57.7,29.91,SE,142,0.0,3.0,92,0.00,,,0.67,Wunderground v.1.15,2013-05-09 18:40:00,
2013-05-09 13:45:00,60.3,57.7,29.91,SE,143,1.0,3.0,91,0.00,,,0.67,Wunderground v.1.15,2013-05-09 18:45:00,
2013-05-09 13:50:00,60.8,58.2,29.91,NNW,343,1.0,3.0,91,0.00,,,0.67,Wunderground v.1.15,2013-05-09 18:50:00,
2013-05-09 13:55:00,61.6,58.3,29.91,SE,134,1.0,3.0,89,0.00,,,0.67,Wunderground v.1.15,2013-05-09 18:55:00,
2013-05-09 14:00:00,62.0,58.4,29.91,ESE,108,1.0,3.0,88,0.00,,,0.67,Wunderground v.1.15,2013-05-09 19:00:00,
2013-05-09 14:05:00,61.9,58.0,29.90,ESE,105,1.0,3.0,87,0.00,,,0.67,Wunderground v.1.15,2013-05-09 19:05:00,
2013-05-09 14:10:00,62.4,58.8,29.90,East,91,1.0,3.0,88,0.00,,,0.67,Wunderground v.1.15,2013-05-09 19:10:00,
2013-05-09 14:15:00,63.6,59.7,29.90,East,97,1.0,3.0,87,0.00,,,0.67,Wunderground v.1.15,2013-05-09 19:15:00,
2013-05-09 14:20:00,64.6,59.3,29.90,East,97,1.0,3.0,83,0.00,,,0.67,Wunderground v.1.15,2013-05-09 19:20:00,
2013-05-09 14:30:00,65.0,58.3,29.90,East,87,1.0,3.0,79,0.00,,,0.67,Wunderground v.1.15,2013-05-09 19:30:00,
2013-05-09 14:35:00,65.9,59.6,29.90,West,259,1.0,3.0,80,0.00,,,0.67,Wunderground v.1.15,2013-05-09 19:35:00,
2013-05-09 14:40:00,66.8,59.7,29.90,WNW,287,1.0,3.0,78,0.00,,,0.67,Wunderground v.1.15,2013-05-09 19:40:00,
2013-05-09 14:45:00,67.3,59.8,29.90,NE,34,1.0,3.0,77,0.00,,,0.67,Wunderground v.1.15,2013-05-09 19:45:00,
2013-05-09 14:50:00,67.5,59.3,29.90,SW,222,1.0,3.0,75,0.00,,,0.67,Wunderground v.1.15,2013-05-09 19:50:00,
2013-05-09 14:55:00,67.5,58.9,29.89,SSE,152,1.0,3.0,74,0.00,,,0.67,Wunderground v.1.15,2013-05-09 19:55:00,
2013-05-09 15:05:00,67.4,59.2,29.89,SE,141,1.0,3.0,75,0.00,,,0.67,Wunderground v.1.15,2013-05-09 20:05:00,
2013-05-09 15:10:00,67.7,58.3,29.89,North,1,1.0,1.0,72,0.00,,,0.67,Wunderground v.1.15,2013-05-09 20:10:00,
2013-05-09 15:15:00,67.8,58.4,29.89,ESE,114,1.0,2.0,72,0.00,,,0.67,Wunderground v.1.15,2013-05-09 20:15:00,
2013-05-09 15:20:00,68.0,58.6,29.89,ESE,113,1.0,3.0,72,0.00,,,0.67,Wunderground v.1.15,2013-05-09 20:20:00,
2013-05-09 15:25:00,68.5,59.5,29.89,West,273,1.0,3.0,73,0.00,,,0.67,Wunderground v.1.15,2013-05-09 20:25:00,
2013-05-09 15:35:00,68.9,59.5,29.89,SE,128,1.0,3.0,72,0.00,,,0.67,Wunderground v.1.15,2013-05-09 20:35:00,
2013-05-09 15:40:00,68.8,58.2,29.88,ENE,73,1.0,3.0,69,0.00,,,0.67,Wunderground v.1.15,2013-05-09 20:40:00,
2013-05-09 15:45:00,68.4,57.8,29.88,East,95,1.0,3.0,69,0.00,,,0.67,Wunderground v.1.15,2013-05-09 20:45:00,
2013-05-09 15:50:00,68.4,57.8,29.88,SSW,212,1.0,1.0,69,0.00,,,0.67,Wunderground v.1.15,2013-05-09 20:50:00,
2013-05-09 15:55:00,68.2,57.6,29.88,SSE,152,1.0,2.0,69,0.00,,,0.67,Wunderground v.1.15,2013-05-09 20:55:00,
2013-05-09 16:00:00,67.5,57.8,29.88,SE,125,2.0,4.0,71,0.00,,,0.67,Wunderground v.1.15,2013-05-09 21:00:00,
2013-05-09 16:10:00,66.5,57.2,29.88,South,183,3.0,3.0,72,0.00,,,0.67,Wunderground v.1.15,2013-05-09 21:10:00,
2013-05-09 16:15:00,66.7,57.4,29.88,ENE,63,2.0,3.0,72,0.00,,,0.67,Wunderground v.1.15,2013-05-09 21:15:00,
2013-05-09 16:20:00,67.1,57.4,29.88,West,262,1.0,3.0,71,0.00,,,0.67,Wunderground v.1.15,2013-05-09 21:20:00,
2013-05-09 16:25:00,67.3,57.6,29.88,ESE,120,2.0,3.0,71,0.00,,,0.67,Wunderground v.1.15,2013-05-09 21:25:00,
2013-05-09 16:30:00,67.5,57.8,29.88,East,99,2.0,2.0,71,0.00,,,0.67,Wunderground v.1.15,2013-05-09 21:30:00,
2013-05-09 16:40:00,67.2,58.2,29.88,NE,38,2.0,2.0,73,0.00,,,0.67,Wunderground v.1.15,2013-05-09 21:40:00,
2013-05-09 16:45:00,67.2,57.9,29.88,WSW,250,2.0,3.0,72,0.00,,,0.67,Wunderground v.1.15,2013-05-09 21:45:00,
2013-05-09 16:50:00,67.3,57.6,29.88,East,89,2.0,3.0,71,0.00,,,0.67,Wunderground v.1.15,2013-05-09 21:50:00,
2013-05-09 16:55:00,67.4,58.4,29.88,WSW,250,2.0,3.0,73,0.00,,,0.67,Wunderground v.1.15,2013-05-09 21:55:00,
2013-05-09 17:00:00,67.9,58.1,29.88,SE,145,2.0,2.0,71,0.00,,,0.67,Wunderground v.1.15,2013-05-09 22:00:00,
2013-05-09 17:05:00,67.8,58.4,29.88,SSW,194,2.0,3.0,72,0.00,,,0.67,Wunderground v.1.15,2013-05-09 22:05:00,
2013-05-09 17:15:00,65.8,57.7,29.89,ESE,110,2.0,4.0,75,0.00,,,0.67,Wunderground v.1.15,2013-05-09 22:15:00,
2013-05-09 17:20:00,64.2,57.2,29.89,East,91,3.0,3.0,78,0.00,,,0.67,Wunderground v.1.15,2013-05-09 22:20:00,
2013-05-09 17:25:00,63.1,56.8,29.89,East,83,3.0,4.0,80,0.00,,,0.67,Wunderground v.1.15,2013-05-09 22:25:00,
2013-05-09 17:30:00,62.3,57.1,29.90,East,89,3.0,3.0,83,0.00,,,0.67,Wunderground v.1.15,2013-05-09 22:30:00,
2013-05-09 17:35:00,61.7,56.8,29.90,WSW,248,2.0,3.0,84,0.00,,,0.67,Wunderground v.1.15,2013-05-09 22:35:00,
2013-05-09 17:40:00,61.3,56.8,29.91,ESE,120,1.0,3.0,85,0.00,,,0.67,Wunderground v.1.15,2013-05-09 22:40:00,
2013-05-09 17:45:00,61.0,56.8,29.91,East,82,1.0,3.0,86,0.00,,,0.67,Wunderground v.1.15,2013-05-09 22:45:00,
2013-05-09 17:50:00,60.9,57.0,29.91,East,90,1.0,1.0,87,0.00,,,0.67,Wunderground v.1.15,2013-05-09 22:50:00,
2013-05-09 17:55:00,60.9,57.3,29.91,West,270,1.0,3.0,88,0.00,,,0.67,Wunderground v.1.15,2013-05-09 22:55:00,
2013-05-09 18:05:00,60.4,57.5,29.91,WSW,256,1.0,3.0,90,0.00,,,0.68,Wunderground v.1.15,2013-05-09 23:05:00,
2013-05-09 18:10:00,60.2,57.6,29.91,ESE,110,1.0,1.0,91,0.00,,,0.68,Wunderground v.1.15,2013-05-09 23:10:00,
2013-05-09 18:15:00,60.0,57.4,29.91,East,86,1.0,3.0,91,0.00,,,0.68,Wunderground v.1.15,2013-05-09 23:15:00,
2013-05-09 18:20:00,59.7,56.8,29.91,SSE,163,1.0,3.0,90,0.00,,,0.69,Wunderground v.1.15,2013-05-09 23:20:00,
2013-05-09 18:25:00,59.6,57.0,29.91,ESE,121,1.0,3.0,91,0.00,,,0.69,Wunderground v.1.15,2013-05-09 23:25:00,
2013-05-09 18:30:00,59.5,57.2,29.91,SE,142,1.0,3.0,92,0.00,,,0.69,Wunderground v.1.15,2013-05-09 23:30:00,
2013-05-09 18:35:00,59.4,57.1,29.91,West,271,1.0,3.0,92,0.00,,,0.69,Wunderground v.1.15,2013-05-09 23:35:00,
2013-05-09 18:40:00,59.2,56.9,29.91,ESE,107,1.0,3.0,92,0.00,,,0.70,Wunderground v.1.15,2013-05-09 23:40:00,
2013-05-09 18:50:00,59.2,57.2,29.91,SE,125,1.0,3.0,93,0.00,,,0.70,Wunderground v.1.15,2013-05-09 23:50:00,
2013-05-09 18:55:00,59.1,57.1,29.91,East,87,1.0,3.0,93,0.00,,,0.70,Wunderground v.1.15,2013-05-09 23:55:00,
2013-05-09 19:00:00,59.1,57.1,29.91,ESE,107,1.0,3.0,93,0.00,,,0.70,Wunderground v.1.15,2013-05-10 00:00:00,
2013-05-09 19:05:00,59.1,57.1,29.91,ENE,73,1.0,3.0,93,0.00,,,0.70,Wunderground v.1.15,2013-05-10 00:05:00,
2013-05-09 19:10:00,59.2,57.2,29.91,West,264,1.0,1.0,93,0.00,,,0.71,Wunderground v.1.15,2013-05-10 00:10:00,
2013-05-09 19:20:00,59.4,57.4,29.91,SE,143,1.0,3.0,93,0.00,,,0.71,Wunderground v.1.15,2013-05-10 00:20:00,
2013-05-09 19:25:00,59.4,57.1,29.91,ENE,76,1.0,5.0,92,0.00,,,0.71,Wunderground v.1.15,2013-05-10 00:25:00,
2013-05-09 19:30:00,59.5,57.2,29.92,ENE,75,2.0,3.0,92,0.00,,,0.71,Wunderground v.1.15,2013-05-10 00:30:00,
2013-05-09 19:35:00,59.4,57.1,29.92,East,82,2.0,3.0,92,0.00,,,0.71,Wunderground v.1.15,2013-05-10 00:35:00,
2013-05-09 19:40:00,59.4,56.8,29.92,NE,53,1.0,3.0,91,0.00,,,0.71,Wunderground v.1.15,2013-05-10 00:40:00,
2013-05-09 19:45:00,59.4,56.8,29.92,East,98,1.0,3.0,91,0.00,,,0.71,Wunderground v.1.15,2013-05-10 00:45:00,
2013-05-09 19:55:00,59.3,56.7,29.92,NNW,348,1.0,3.0,91,0.00,,,0.71,Wunderground v.1.15,2013-05-10 00:55:00,
2013-05-09 20:00:00,59.3,56.7,29.92,SE,136,1.0,3.0,91,0.00,,,0.71,Wunderground v.1.15,2013-05-10 01:00:00,
2013-05-09 20:05:00,59.3,56.7,29.92,West,281,1.0,3.0,91,0.00,,,0.71,Wunderground v.1.15,2013-05-10 01:05:00,